Location: Moscow
(55.7500°N, 37.5830°E)
Time: 06:26:12
(UTC+03:00)

Vanguard 1 Rocket - Pass Details

Date: 06 December 2021
Orbit: 651 x 4225 km, 34.3° (Epoch: 26 January)

Event Time Altitude Azimuth Distance (km) Brightness Sun altitude
Exits shadow 06:53:30 - 255° (WSW) 5,486 10.9 -14.0°
Reaches altitude 10° 06:55:22 10° 250° (WSW) 5,253 10.8 -13.8°
Maximum altitude 07:08:43 30° 198° (SSW) 5,018 11.2 -12.0°
Drops below altitude 10° 07:27:35 10° 149° (SSE) 7,385 13.0 -9.6°
Sets 07:34:49 0° 141° (SE) 8,456 13.7 -8.7°
